Flag for USA Past Weather in Kykotsmovi Village, Hopi, Arizona, USA — Yesterday and Last 2 Weeks

Now
58 °F

Clear.


Feels Like: 57 °F
Forecast: 51 / 81 °F
Wind: 7 mph from West

Location: Winslow Municipal Airport

Current Time: Aug 28, 2016 at 10:48:34 PM

Latest Report: Aug 28, 2016 at 9:56 PM


Visibility: 10 mi

Pressure: 30.09 "Hg (24.51 "Hg at 1727m altitude)

Humidity: 81%

Dew Point: 52 °F

Location of Kykotsmovi Village, HopiLocation

Past Weather in Kykotsmovi Village, Hopi — Graph

°F

Kykotsmovi Village, Hopi Temperature Yesterday

Maximum temperature yesterday: 75 °F (at 4:56 PM)
Minimum temperature yesterday: 55 °F (at 11:56 PM)
Average temperature yesterday: 63 °F

High & Low Weather Summary for the Past Weeks

 TemperatureHumidityPressure
High96 °F (Aug 14, 2:56 PM)93% (Aug 26, 5:56 AM)30.16 "Hg (Aug 26, 5:56 AM)
Low52 °F (Aug 24, 3:56 AM)7% (Aug 14, 5:56 PM)29.76 "Hg (Aug 20, 2:56 PM)
Average71 °F48%29.95 "Hg
* Reported Aug 13 8:56 PM — Aug 28 8:56 PM, Kykotsmovi Village, Hopi, Weather by CustomWeather, © 2016

Note: Actual official high and low records may vary slightly from our data, if they occured in-between our weather recording intervals... More about our weather records

Advertising

Kykotsmovi Village, Hopi Weather History for the Previous 24 Hours

Scroll right to see more
 ConditionsComfort  
Time TempWeatherWind HumidityBarometerVisibility
8:56 PM
Sun, Aug 28
61 °FClear.No wind72%30.08 "Hg10 mi
7:56 PM69 °FClear.3 mph45%30.05 "Hg10 mi
6:56 PM74 °FClear.5 mph35%30.03 "Hg10 mi
5:56 PM74 °FSunny.7 mph36%30.04 "Hg10 mi
4:56 PM77 °FSunny.10 mph29%30.02 "Hg10 mi
3:56 PM79 °FSunny.8 mph28%30.02 "Hg10 mi
2:56 PM79 °FSunny.6 mph29%30.03 "Hg10 mi
1:56 PM78 °FSunny.8 mph31%30.06 "Hg10 mi
12:56 PM76 °FSunny.5 mph40%30.07 "Hg10 mi
11:56 AM72 °FSunny.5 mph57%30.08 "Hg10 mi
10:56 AM67 °FSunny.3 mph68%30.11 "Hg10 mi
9:56 AM62 °FMore clouds than sun.5 mph80%30.13 "Hg10 mi
8:56 AM61 °FOvercast.No wind83%30.11 "Hg10 mi
7:56 AM59 °FLight rain. Overcast.No wind90%30.10 "Hg9 mi
6:56 AM58 °FLight rain. More clouds than sun.7 mph87%30.08 "Hg10 mi
5:56 AM54 °FPassing clouds.7 mph90%30.07 "Hg10 mi
4:56 AM54 °FPassing clouds.No wind90%30.05 "Hg10 mi
3:56 AM52 °FClear.6 mph89%30.04 "Hg10 mi
2:56 AM54 °FClear.No wind86%30.03 "Hg10 mi
1:56 AM53 °FClear.8 mph86%30.03 "Hg10 mi
12:56 AM54 °FClear.No wind83%30.04 "Hg10 mi
11:56 PM
Sat, Aug 27
55 °FClear.No wind83%30.06 "Hg10 mi
10:56 PM61 °FClear.No wind72%30.03 "Hg10 mi
Weather by CustomWeather, © 2016

See weather overviewHow to use our weather pages